| time (UTC) | temp C | wind direction | speed KPH | gust KPH | rain 1hr cm | rain 24hr cm | rain mn cm | humidity % | barometer mb |
| 20260901211326 | 33 | 345 | 1.6 | 8.0 | 0.00 | 0.00 | 0.00 | 55 | 1013.2 |
| 20260901210332 | 33 | 133 | 0.0 | 4.8 | 0.00 | 0.00 | 0.00 | 54 | 1013.2 |
| 20260901205338 | 33 | 14 | 3.2 | 9.7 | 0.00 | 0.00 | 0.00 | 54 | 1013.4 |
| 20260901204323 | 33 | 352 | 0.0 | 6.4 | 0.00 | 0.00 | 0.00 | 57 | 1013.6 |
| 20260901203326 | 33 | 18 | 0.0 | 3.2 | 0.00 | 0.00 | 0.00 | 56 | 1013.7 |
| 20260901202336 | 33 | 101 | 0.0 | 3.2 | 0.00 | 0.00 | 0.00 | 56 | 1013.8 |
| 20260901201342 | 33 | 350 | 1.6 | 9.7 | 0.00 | 0.00 | 0.00 | 56 | 1014.0 |
| 20260901200325 | 33 | 16 | 0.0 | 6.4 | 0.00 | 0.00 | 0.00 | 56 | 1014.2 |
| 20260901195329 | 33 | 353 | 0.0 | 3.2 | 0.00 | 0.00 | 0.00 | 57 | 1014.3 |
| 20260901194335 | 33 | 112 | 3.2 | 8.0 | 0.00 | 0.00 | 0.00 | 59 | 1014.4 |
| 20260901193337 | 33 | 345 | 0.0 | 4.8 | 0.00 | 0.00 | 0.00 | 60 | 1014.4 |
| 20260901192343 | 33 | 97 | 0.0 | 3.2 | 0.00 | 0.00 | 0.00 | 60 | 1014.4 |
| 20260901191333 | 33 | 60 | 3.2 | 11.3 | 0.00 | 0.00 | 0.00 | 61 | 1014.4 |
| 20260901190336 | 33 | 120 | 1.6 | 6.4 | 0.00 | 0.00 | 0.00 | 62 | 1014.6 |
| 20260901185338 | 33 | 46 | 3.2 | 6.4 | 0.00 | 0.00 | 0.00 | 59 | 1014.6 |
| 20260901184342 | 32 | 340 | 0.0 | 4.8 | 0.00 | 0.00 | 0.00 | 62 | 1014.8 |
| 20260901183326 | 32 | 10 | 3.2 | 8.0 | 0.00 | 0.00 | 0.00 | 62 | 1015.0 |
| 20260901182332 | 32 | 5 | 0.0 | 6.4 | 0.00 | 0.00 | 0.00 | 62 | 1015.0 |
| 20260901181358 | 32 | 10 | 1.6 | 6.4 | 0.00 | 0.00 | 0.00 | 62 | 1015.2 |
| 20260901180339 | 32 | 147 | 1.6 | 9.7 | 0.00 | 0.00 | 0.00 | 63 | 1015.5 |
| 20260901175330 | 32 | 324 | 3.2 | 9.7 | 0.00 | 0.00 | 0.00 | 65 | 1015.6 |
| 20260901174336 | 32 | 360 | 0.0 | 6.4 | 0.00 | 0.00 | 0.00 | 65 | 1016.0 |
| 20260901173336 | 32 | 18 | 0.0 | 8.0 | 0.00 | 0.00 | 0.00 | 65 | 1016.2 |
| 20260901172340 | 32 | 37 | 1.6 | 8.0 | 0.00 | 0.00 | 0.00 | 67 | 1016.3 |
| 20260901171328 | 32 | 43 | 4.8 | 9.7 | 0.00 | 0.00 | 0.00 | 66 | 1016.4 |
| 20260901170331 | 31 | 48 | 0.0 | 8.0 | 0.00 | 0.00 | 0.00 | 69 | 1016.4 |
| 20260901165336 | 31 | 345 | 1.6 | 4.8 | 0.00 | 0.00 | 0.00 | 70 | 1016.5 |
| 20260901164327 | 31 | 65 | 4.8 | 9.7 | 0.00 | 0.00 | 0.00 | 71 | 1016.4 |
| 20260901163327 | 30 | 65 | 3.2 | 8.0 | 0.00 | 0.00 | 0.00 | 71 | 1016.5 |
| 20260901162331 | 30 | 5 | 1.6 | 6.4 | 0.00 | 0.00 | 0.00 | 72 | 1016.7 |
| 20260901161335 | 30 | 315 | 0.0 | 4.8 | 0.00 | 0.00 | 0.00 | 73 | 1016.7 |
| 20260901160339 | 30 | 5 | 0.0 | 4.8 | 0.00 | 0.00 | 0.00 | 73 | 1016.5 |
| 20260901155324 | 30 | 360 | 1.6 | 4.8 | 0.00 | 0.00 | 0.00 | 73 | 1016.5 |
| 20260901154326 | 30 | 347 | 1.6 | 6.4 | 0.00 | 0.00 | 0.00 | 72 | 1016.4 |
| 20260901153333 | 30 | 338 | 3.2 | 9.7 | 0.00 | 0.00 | 0.00 | 72 | 1016.5 |
| 20260901152338 | 30 | 286 | 3.2 | 14.5 | 0.00 | 0.00 | 0.00 | 74 | 1016.4 |
| 20260901151343 | 30 | 15 | 1.6 | 8.0 | 0.00 | 0.00 | 0.00 | 75 | 1016.5 |
| 20260901150325 | 29 | 322 | 3.2 | 14.5 | 0.00 | 0.00 | 0.00 | 77 | 1016.5 |
| 20260901145332 | 28 | 319 | 1.6 | 12.9 | 0.00 | 0.00 | 0.00 | 77 | 1016.6 |
| 20260901144335 | 28 | 332 | 4.8 | 12.9 | 0.00 | 0.00 | 0.00 | 81 | 1016.6 |
| 20260901143358 | 28 | 319 | 6.4 | 12.9 | 0.00 | 0.00 | 0.00 | 83 | 1016.6 |
| 20260901142342 | 27 | 297 | 0.0 | 9.7 | 0.00 | 0.00 | 0.00 | 85 | 1016.6 |
| 20260901141331 | 27 | 316 | 0.0 | 9.7 | 0.00 | 0.00 | 0.00 | 87 | 1016.7 |
| 20260901140332 | 26 | 330 | 0.0 | 8.0 | 0.00 | 0.00 | 0.00 | 89 | 1016.8 |
| 20260901135338 | 26 | 5 | 3.2 | 9.7 | 0.00 | 0.00 | 0.00 | 90 | 1016.8 |
| 20260901134404 | 25 | 283 | 3.2 | 8.0 | 0.00 | 0.00 | 0.00 | 92 | 1016.7 |
| 20260901133324 | 25 | 322 | 1.6 | 4.8 | 0.00 | 0.00 | 0.00 | 93 | 1016.7 |
| 20260901132331 | 25 | 316 | 1.6 | 4.8 | 0.00 | 0.00 | 0.00 | 93 | 1016.7 |
| 20260901131357 | 25 | 325 | 0.0 | 4.8 | 0.00 | 0.00 | 0.00 | 93 | 1016.6 |
| 20260901130338 | 25 | 318 | 1.6 | 4.8 | 0.00 | 0.00 | 0.00 | 93 | 1016.5 |
| 20260901125349 | 24 | 334 | 0.0 | 3.2 | 0.00 | 0.00 | 0.00 | 93 | 1016.5 |
| 20260901124333 | 24 | 318 | 0.0 | 3.2 | 0.00 | 0.00 | 0.00 | 93 | 1016.2 |
| 20260901123334 | 24 | 303 | 1.6 | 3.2 | 0.00 | 0.00 | 0.00 | 94 | 1016.1 |
| 20260901122401 | 24 | 326 | 0.0 | 3.2 | 0.00 | 0.00 | 0.00 | 93 | 1015.9 |
| 20260901121324 | 24 | 324 | 0.0 | 1.6 | 0.00 | 0.00 | 0.00 | 93 | 1015.7 |
| 20260901120326 | 24 | 324 | 0.0 | 1.6 | 0.00 | 0.00 | 0.00 | 93 | 1015.7 |
| 20260901115351 | 24 | 5 | 0.0 | 3.2 | 0.00 | 0.00 | 0.00 | 93 | 1015.5 |
| 20260901114337 | 24 | 5 | 0.0 | 0.0 | 0.00 | 0.00 | 0.00 | 93 | 1015.4 |
| 20260901113324 | 24 | 5 | 0.0 | 0.0 | 0.00 | 0.00 | 0.00 | 93 | 1015.3 |
| 20260901112327 | 24 | 5 | 0.0 | 0.0 | 0.00 | 0.00 | 0.00 | 92 | 1015.3 |
| 20260901111333 | 24 | 5 | 0.0 | 0.0 | 0.00 | 0.00 | 0.00 | 92 | 1015.3 |
| 20260901110334 | 24 | 5 | 0.0 | 0.0 | 0.00 | 0.00 | 0.00 | 92 | 1015.3 |
| 20260901105341 | 24 | 5 | 0.0 | 0.0 | 0.00 | 0.00 | 0.00 | 92 | 1015.3 |
| 20260901104325 | 24 | 10 | 0.0 | 0.0 | 0.00 | 0.00 | 0.00 | 92 | 1015.4 |
| 20260901103328 | 24 | 32 | 0.0 | 0.0 | 0.00 | 0.00 | 0.00 | 92 | 1015.3 |
| 20260901102335 | 24 | 116 | 0.0 | 0.0 | 0.00 | 0.00 | 0.00 | 92 | 1015.2 |
| 20260901101342 | 24 | 116 | 0.0 | 0.0 | 0.00 | 0.00 | 0.00 | 92 | 1015.2 |
| 20260901100326 | 24 | 116 | 0.0 | 0.0 | 0.00 | 0.00 | 0.00 | 91 | 1015.2 |
| 20260901095330 | 25 | 116 | 0.0 | 0.0 | 0.00 | 0.00 | 0.00 | 91 | 1015.1 |
| 20260901094336 | 25 | 116 | 0.0 | 0.0 | 0.00 | 0.00 | 0.00 | 91 | 1015.1 |
| 20260901093357 | 25 | 116 | 0.0 | 0.0 | 0.00 | 0.00 | 0.00 | 91 | 1015.1 |
| 20260901092342 | 25 | 117 | 0.0 | 0.0 | 0.00 | 0.00 | 0.00 | 91 | 1015.2 |
| 20260901091326 | 25 | 116 | 0.0 | 0.0 | 0.00 | 0.00 | 0.00 | 91 | 1015.2 |
| 20260901090330 | 25 | 116 | 0.0 | 0.0 | 0.00 | 0.00 | 0.00 | 92 | 1015.2 |
| 20260901085340 | 25 | 116 | 0.0 | 0.0 | 0.00 | 0.00 | 0.00 | 92 | 1015.3 |
| 20260901084326 | 25 | 116 | 0.0 | 0.0 | 0.00 | 0.00 | 0.00 | 91 | 1015.4 |
| 20260901082332 | 25 | 116 | 0.0 | 0.0 | 0.00 | 0.00 | 0.00 | 90 | 1015.5 |
| 20260901081337 | 25 | 116 | 0.0 | 0.0 | 0.00 | 0.00 | 0.00 | 90 | 1015.6 |
| 20260901080339 | 25 | 116 | 0.0 | 0.0 | 0.00 | 0.00 | 0.00 | 89 | 1015.7 |
| 20260901075324 | 25 | 116 | 0.0 | 0.0 | 0.00 | 0.00 | 0.00 | 89 | 1015.8 |
| 20260901074353 | 25 | 116 | 0.0 | 0.0 | 0.00 | 0.00 | 0.00 | 89 | 1015.8 |
| 20260901073335 | 25 | 116 | 0.0 | 0.0 | 0.00 | 0.00 | 0.00 | 90 | 1015.6 |
| 20260901072343 | 25 | 116 | 0.0 | 0.0 | 0.00 | 0.00 | 0.00 | 89 | 1015.7 |
| 20260901071327 | 25 | 116 | 0.0 | 0.0 | 0.00 | 0.00 | 0.00 | 89 | 1015.7 |
| 20260901070350 | 25 | 116 | 0.0 | 0.0 | 0.00 | 0.00 | 0.00 | 88 | 1015.8 |
| 20260901065355 | 26 | 116 | 0.0 | 0.0 | 0.00 | 0.00 | 0.00 | 88 | 1015.9 |
| 20260901064342 | 26 | 116 | 0.0 | 0.0 | 0.00 | 0.00 | 0.00 | 87 | 1015.9 |
| 20260901063324 | 26 | 116 | 0.0 | 0.0 | 0.00 | 0.00 | 0.00 | 87 | 1015.9 |
| 20260901062335 | 26 | 116 | 0.0 | 0.0 | 0.00 | 0.00 | 0.00 | 86 | 1016.0 |
| 20260901061341 | 26 | 116 | 0.0 | 1.6 | 0.00 | 0.00 | 0.00 | 86 | 1015.8 |
| 20260901060326 | 26 | 116 | 1.6 | 3.2 | 0.00 | 0.00 | 0.00 | 85 | 1015.9 |
| 20260901055332 | 26 | 175 | 0.0 | 3.2 | 0.00 | 0.00 | 0.00 | 85 | 1015.8 |
| 20260901054338 | 26 | 175 | 0.0 | 0.0 | 0.00 | 0.00 | 0.00 | 84 | 1015.6 |
| 20260901053338 | 26 | 175 | 0.0 | 0.0 | 0.00 | 0.00 | 0.00 | 84 | 1015.7 |
| 20260901052344 | 26 | 175 | 0.0 | 0.0 | 0.00 | 0.00 | 0.00 | 84 | 1015.6 |
| 20260901051349 | 27 | 175 | 0.0 | 0.0 | 0.00 | 0.00 | 0.00 | 84 | 1015.6 |
| 20260901050336 | 27 | 174 | 0.0 | 0.0 | 0.00 | 0.00 | 0.00 | 84 | 1015.5 |
| 20260901045341 | 27 | 179 | 0.0 | 1.6 | 0.00 | 0.00 | 0.00 | 83 | 1015.6 |
| 20260901044347 | 27 | 177 | 0.0 | 3.2 | 0.00 | 0.00 | 0.00 | 83 | 1015.4 |
| 20260901043329 | 27 | 167 | 0.0 | 3.2 | 0.00 | 0.00 | 0.00 | 82 | 1015.5 |
| 20260901042354 | 27 | 140 | 0.0 | 0.0 | 0.00 | 0.00 | 0.00 | 81 | 1015.3 |
| 20260901041337 | 27 | 195 | 0.0 | 0.0 | 0.00 | 0.00 | 0.00 | 81 | 1015.3 |
| 20260901040342 | 27 | 195 | 0.0 | 0.0 | 0.00 | 0.00 | 0.00 | 80 | 1015.3 |
| 20260901035325 | 27 | 195 | 0.0 | 0.0 | 0.00 | 0.00 | 0.00 | 80 | 1015.2 |
| 20260901034335 | 27 | 186 | 0.0 | 0.0 | 0.00 | 0.00 | 0.00 | 80 | 1015.1 |
| 20260901033339 | 27 | 172 | 0.0 | 0.0 | 0.00 | 0.00 | 0.00 | 79 | 1015.0 |
| 20260901032345 | 28 | 158 | 0.0 | 0.0 | 0.00 | 0.00 | 0.00 | 79 | 1015.0 |
| 20260901031329 | 28 | 148 | 0.0 | 1.6 | 0.00 | 0.00 | 0.00 | 77 | 1014.8 |
| 20260901030332 | 28 | 160 | 0.0 | 0.0 | 0.00 | 0.00 | 0.00 | 76 | 1014.7 |
| 20260901025336 | 28 | 132 | 0.0 | 0.0 | 0.00 | 0.00 | 0.00 | 75 | 1014.6 |
| 20260901024341 | 28 | 132 | 0.0 | 3.2 | 0.00 | 0.00 | 0.00 | 75 | 1014.6 |
| 20260901023325 | 28 | 132 | 1.6 | 3.2 | 0.00 | 0.00 | 0.00 | 73 | 1014.6 |
| 20260901022335 | 29 | 132 | 1.6 | 4.8 | 0.00 | 0.00 | 0.00 | 72 | 1014.3 |
| 20260901021342 | 29 | 143 | 1.6 | 3.2 | 0.00 | 0.00 | 0.00 | 71 | 1014.1 |
| 20260901020329 | 29 | 144 | 1.6 | 4.8 | 0.00 | 0.00 | 0.00 | 70 | 1014.0 |
| 20260901015336 | 30 | 133 | 4.8 | 8.0 | 0.00 | 0.00 | 0.00 | 69 | 1013.8 |
| 20260901014342 | 30 | 143 | 3.2 | 8.0 | 0.00 | 0.00 | 0.00 | 68 | 1013.8 |
| 20260901013326 | 30 | 133 | 3.2 | 6.4 | 0.00 | 0.00 | 0.00 | 68 | 1013.8 |
| 20260901012336 | 30 | 141 | 3.2 | 6.4 | 0.00 | 0.00 | 0.00 | 67 | 1013.9 |
| 20260901011341 | 31 | 151 | 6.4 | 12.9 | 0.00 | 0.00 | 0.00 | 66 | 1014.0 |
| 20260901010342 | 31 | 133 | 4.8 | 11.3 | 0.00 | 0.00 | 0.00 | 64 | 1013.9 |
| 20260901005327 | 31 | 114 | 6.4 | 12.9 | 0.00 | 0.00 | 0.00 | 61 | 1013.8 |
| 20260901004351 | 32 | 135 | 6.4 | 11.3 | 0.00 | 0.00 | 0.00 | 59 | 1013.7 |
| 20260901003331 | 32 | 126 | 4.8 | 14.5 | 0.00 | 0.00 | 0.00 | 57 | 1013.7 |
| 20260901002357 | 32 | 132 | 6.4 | 14.5 | 0.00 | 0.00 | 0.00 | 55 | 1013.7 |
| 20260901001340 | 32 | 143 | 4.8 | 9.7 | 0.00 | 0.00 | 0.00 | 56 | 1013.7 |
| 20260901000405 | 33 | 113 | 3.2 | 16.1 | 0.00 | 0.00 | 0.00 | 55 | 1013.6 |
| 20260831235332 | 33 | 118 | 3.2 | 14.5 | 0.00 | 0.00 | 0.00 | 54 | 1013.7 |
| 20260831234338 | 33 | 123 | 4.8 | 9.7 | 0.00 | 0.00 | 0.00 | 55 | 1013.6 |
| 20260831233340 | 33 | 122 | 9.7 | 14.5 | 0.00 | 0.00 | 0.00 | 54 | 1013.6 |
| 20260831232325 | 33 | 133 | 6.4 | 16.1 | 0.00 | 0.00 | 0.00 | 54 | 1013.6 |
| 20260831231331 | 33 | 68 | 6.4 | 12.9 | 0.00 | 0.00 | 0.00 | 55 | 1013.5 |
| 20260831230334 | 33 | 136 | 8.0 | 17.7 | 0.00 | 0.00 | 0.00 | 54 | 1013.4 |
| 20260831225339 | 34 | 135 | 9.7 | 19.3 | 0.00 | 0.00 | 0.00 | 54 | 1013.6 |
| 20260831224328 | 34 | 102 | 3.2 | 11.3 | 0.00 | 0.00 | 0.00 | 55 | 1013.6 |
| 20260831223328 | 34 | 105 | 1.6 | 6.4 | 0.00 | 0.00 | 0.00 | 54 | 1013.6 |
| 20260831222334 | 34 | 116 | 1.6 | 6.4 | 0.00 | 0.00 | 0.00 | 54 | 1013.7 |
| 20260831221340 | 33 | 83 | 1.6 | 4.8 | 0.00 | 0.00 | 0.00 | 55 | 1013.7 |
| 20260831220342 | 33 | 144 | 0.0 | 1.6 | 0.00 | 0.00 | 0.00 | 54 | 1013.7 |
| 20260831215346 | 34 | 99 | 3.2 | 6.4 | 0.00 | 0.00 | 0.00 | 52 | 1013.8 |
| 20260831214350 | 35 | 138 | 1.6 | 4.8 | 0.00 | 0.00 | 0.00 | 50 | 1013.9 |
| 20260831213331 | 35 | 56 | 1.6 | 3.2 | 0.00 | 0.00 | 0.00 | 50 | 1013.9 |
| 20260831212341 | 35 | 343 | 1.6 | 4.8 | 0.00 | 0.00 | 0.00 | 51 | 1014.0 |